Wind_Speed
39 39 39 38 38 38 37 34 33 31 30 30 29 28 28 28 28 27 24 22 22 22 22 22 22 22 22 21 20 20 19 18 17 16 15 14 13 12 11 11 11 11 11 11 11 10 10 10 10
41 40 40 40 40 38 37 35 34 33 33 32 31 30 29 29 29 27 25 24 22 22 22 22 23 23 23 23 22 21 20 20 19 18 17 16 15 14 14 13 13 12 12 12 12 12 12 12 12
42 42 42 41 40 38 36 36 36 35 35 34 33 32 31 30 30 29 28 27 25 24 24 23 23 23 24 24 24 23 22 21 21 20 19 18 17 17 16 16 15 15 14 14 14 14 14 14 14
43 43 43 42 40 38 37 36 37 37 36 36 35 35 33 32 31 31 30 29 28 27 27 25 25 24 24 24 25 24 24 23 22 22 21 21 20 19 19 18 18 17 16 16 16 15 15 15 15
43 43 43 42 40 39 38 38 38 38 37 37 37 36 35 34 33 33 32 31 30 30 29 28 28 27 26 26 25 26 26 25 24 24 23 23 22 21 21 20 20 19 19 18 18 17 17 17 17
43 43 43 42 40 39 39 39 39 39 38 38 38 38 37 36 36 35 34 33 33 33 32 31 30 30 29 29 28 27 27 27 26 26 25 24 24 23 23 23 22 21 21 21 20 20 20 19 19
43 42 42 42 41 40 40 40 40 39 39 38 38 38 38 38 38 37 36 36 35 35 35 34 33 33 32 31 31 30 29 28 28 27 27 26 26 25 25 24 24 23 23 22 22 22 22 21 21
42 42 42 42 40 40 40 40 40 40 40 39 39 38 37 38 39 39 39 38 37 37 37 36 36 35 35 33 33 33 32 31 30 29 29 28 27 27 26 26 26 25 25 25 24 24 24 24 23
41 42 42 41 41 40 40 40 41 41 41 40 40 39 38 38 39 40 40 39 39 39 39 39 38 38 37 36 35 35 34 34 33 32 32 31 30 30 29 28 27 27 27 27 26 26 26 26 26
39 40 40 40 40 39 39 40 40 40 40 40 40 40 38 38 39 39 40 40 40 40 40 40 40 39 39 38 38 37 36 36 35 34 34 34 33 32 31 30 29 29 29 28 28 27 27 28 28
36 36 37 38 39 39 38 39 39 39 39 40 39 39 38 38 38 39 39 39 40 41 41 41 41 41 40 40 40 40 39 38 37 36 35 35 35 34 33 32 30 30 30 30 30 29 29 29 29
35 35 35 36 37 37 37 37 38 38 38 38 39 39 39 39 39 39 39 40 40 40 41 42 41 41 41 41 41 42 41 41 40 38 37 37 36 35 34 33 32 31 31 31 31 31 31 31 31
32 34 34 34 35 36 36 37 37 37 37 38 38 39 39 39 39 40 40 40 41 41 41 41 42 42 42 42 42 42 42 42 42 41 40 39 38 37 36 35 34 33 33 32 31 31 32 31 31
28 30 32 33 33 34 35 36 37 36 37 38 38 38 39 39 39 40 40 40 40 40 41 41 41 42 42 43 43 44 43 43 43 43 42 41 40 39 39 38 37 36 35 34 33 33 33 33 33
25 27 30 31 32 32 33 34 35 35 37 37 38 38 39 39 39 40 40 40 40 41 41 41 41 41 41 42 43 44 44 44 44 43 43 42 41 40 40 40 40 39 37 37 36 35 35 35 34
23 25 28 29 30 31 32 33 34 35 36 36 37 37 38 38 39 39 40 40 40 41 41 41 41 42 41 41 42 43 44 44 45 45 45 44 43 43 43 42 41 41 40 40 39 38 38 37 37
21 23 25 27 28 30 31 32 33 34 35 36 37 37 37 38 38 38 39 40 39 40 40 41 42 42 41 41 41 42 43 44 45 45 45 46 45 45 44 44 44 43 42 42 41 40 39 39 38
18 20 22 25 27 29 30 31 32 34 34 35 36 36 37 37 37 38 39 39 39 40 41 41 42 42 42 42 42 43 44 44 44 45 45 46 46 46 45 46 46 45 44 43 42 42 41 41 40
16 17 19 22 25 26 28 29 30 32 33 34 34 34 35 35 36 36 37 38 38 39 40 41 42 42 43 42 42 43 43 44 44 44 45 45 46 45 44 45 45 44 44 44 44 43 42 41 41
13 14 16 18 20 22 24 25 27 29 30 30 31 32 33 33 34 35 36 37 37 37 39 40 41 42 42 42 42 42 43 43 43 44 44 44 45 44 45 46 45 45 44 44 43 43 42 42 41
8 11 13 15 16 18 21 22 23 25 26 27 29 30 31 31 32 32 33 34 34 34 35 37 37 38 39 40 40 41 42 42 42 44 44 44 45 44 44 45 45 45 45 44 44 43 43 42 42
6 7 9 11 13 14 16 17 18 20 22 24 26 27 29 30 29 30 30 30 31 32 33 35 36 36 37 38 39 40 41 41 41 43 43 44 44 43 43 43 43 43 43 43 43 43 43 43 43
4 6 7 9 11 12 13 14 14 16 18 20 22 23 25 26 27 27 28 29 30 31 32 33 34 35 36 37 37 38 39 39 40 41 42 42 42 42 41 41 41 41 41 42 43 44 44 45 45
4 5 7 8 9 11 12 12 12 13 14 16 19 21 23 24 25 26 27 28 29 30 31 32 33 34 34 35 35 36 36 37 37 38 40 41 41 40 39 39 39 39 39 40 41 42 43 44 44
4 5 6 7 8 8 10 11 10 12 13 14 16 17 19 21 24 25 26 27 28 29 30 31 32 32 33 33 34 35 35 35 35 36 37 38 38 38 38 38 39 38 38 38 39 40 41 42 42
4 4 5 7 7 7 8 9 9 10 11 13 14 16 17 18 19 21 23 24 26 28 29 30 30 30 31 31 32 33 34 34 34 34 35 35 36 36 37 37 37 38 38 38 38 40 39 39 39
4 4 5 6 6 6 7 7 7 8 10 11 13 14 16 16 17 19 21 22 24 26 27 28 28 28 28 28 29 30 31 31 32 33 33 33 33 33 34 34 36 36 37 38 38 38 38 37 36
4 4 5 6 6 7 6 6 6 7 9 10 12 13 14 16 16 18 19 20 21 23 24 25 25 25 26 26 27 28 28 29 30 31 31 31 32 31 31 31 32 33 34 35 36 36 36 36 36
6 5 6 7 8 9 8 8 8 8 9 10 12 13 14 14 15 15 16 16 17 18 20 21 22 22 23 24 25 26 27 28 28 28 28 28 29 28 28 28 29 30 31 32 32 32 34 35 35
7 7 8 8 9 10 10 9 10 11 11 12 12 12 12 12 12 13 13 13 13 14 15 17 19 20 20 21 21 21 23 23 24 25 25 25 25 26 27 27 27 28 28 29 30 31 31 31 32
Wind_Direction
237 237 237 236 237 237 237 236 236 235 235 235 235 235 237 239 241 244 243 242 242 241 241 241 243 243 244 245 246 248 250 252 253 256 258 260 263 267 270 271 272 274 277 278 279 279 279 279 279
237 236 236 236 237 238 238 237 237 236 236 236 236 236 236 238 240 242 242 242 241 241 241 241 243 244 244 245 246 248 249 251 253 254 256 257 260 264 267 269 271 273 275 276 276 277 278 277 277
236 235 235 236 237 237 238 237 237 237 237 237 237 237 237 238 240 241 241 242 241 242 242 242 243 244 245 245 246 247 249 250 251 253 254 256 258 261 265 267 269 271 272 273 275 276 276 276 276
235 234 235 235 236 236 237 237 237 237 237 237 238 238 238 239 240 241 242 242 243 243 243 243 244 245 245 246 246 247 248 250 251 253 254 256 257 259 262 264 266 268 270 271 272 274 276 277 277
233 233 234 235 235 234 235 236 236 237 237 238 238 239 239 240 241 242 243 243 244 244 244 245 245 246 246 247 247 248 249 250 251 253 255 257 259 259 260 263 265 266 267 269 271 272 273 275 276
232 232 233 233 233 233 234 235 236 237 237 238 239 239 239 240 242 243 244 245 245 245 245 245 246 246 247 247 248 249 250 251 252 253 255 256 257 259 261 262 263 265 266 266 269 270 271 272 274
231 231 232 232 231 232 233 234 236 237 238 238 239 240 240 241 242 244 245 245 246 246 247 247 247 247 248 248 249 250 251 252 253 254 255 256 258 259 260 261 262 262 264 266 266 268 270 271 273
229 230 231 230 230 231 233 234 235 236 238 238 239 240 241 242 243 244 245 246 247 248 248 248 248 248 249 249 250 251 251 252 252 253 255 256 258 258 260 261 260 261 262 264 265 267 268 269 271
228 229 230 230 230 231 232 234 235 236 238 239 240 241 241 242 244 245 246 246 247 248 248 248 249 249 249 249 250 250 251 252 253 253 254 255 257 258 260 261 260 260 261 263 264 266 268 269 270
227 228 229 229 230 231 232 234 236 237 239 239 240 241 242 244 245 245 246 246 247 247 247 248 248 249 249 249 249 250 251 252 253 254 254 255 256 258 259 261 261 260 261 262 264 266 267 268 269
225 227 228 229 230 231 232 233 235 237 238 240 241 242 243 244 245 245 245 245 246 247 247 247 248 249 249 249 249 250 250 251 252 253 254 255 256 257 258 260 261 261 261 262 264 266 267 268 269
224 225 227 228 230 231 231 232 234 236 238 240 241 242 243 245 246 247 246 245 245 246 246 247 248 249 249 250 250 250 250 250 251 252 253 254 256 257 258 259 259 260 260 262 264 265 266 267 269
224 225 226 227 229 231 232 233 235 237 238 240 242 243 243 245 246 247 247 246 246 247 247 247 248 248 249 250 250 250 250 250 250 251 252 253 255 256 257 258 260 260 260 261 262 265 267 269 270
224 225 226 227 229 232 234 235 236 238 239 241 243 244 244 246 246 247 247 246 246 246 246 247 248 249 249 249 249 250 249 250 249 250 251 252 254 255 256 257 259 259 260 260 262 264 267 268 270
225 227 227 227 230 233 235 236 237 239 241 242 244 244 245 246 247 247 247 247 247 247 247 247 249 249 250 250 250 249 249 249 250 251 251 252 252 253 255 256 257 258 259 260 262 264 266 267 270
226 228 227 228 231 234 236 237 238 240 241 243 244 246 247 247 248 247 247 247 247 247 247 248 248 249 250 251 251 250 250 250 250 251 251 252 252 252 253 255 257 257 259 260 261 262 264 266 268
228 231 230 231 232 235 238 240 241 242 243 244 246 247 247 248 248 248 248 247 247 248 248 248 248 249 250 251 251 250 249 250 250 251 252 252 252 252 253 255 256 257 258 259 261 262 264 266 267
233 235 235 236 236 238 240 242 242 244 245 246 248 249 249 249 249 250 249 247 247 248 248 248 249 249 249 250 250 250 250 250 250 251 251 252 252 252 253 255 256 257 258 258 260 262 263 265 267
236 237 238 241 241 242 242 243 244 245 247 248 249 250 250 251 250 251 249 248 248 248 248 249 249 249 249 250 251 250 250 250 250 250 250 250 251 252 253 255 256 257 257 258 259 261 262 264 266
238 239 241 242 244 245 245 246 247 249 250 250 250 251 251 252 252 251 250 249 249 249 249 249 249 249 250 250 251 250 250 249 249 248 248 249 249 252 254 255 255 256 257 258 259 260 261 263 265
240 242 244 246 247 249 250 249 249 250 250 251 252 252 253 253 253 253 252 250 250 249 248 247 248 249 250 251 251 250 250 250 251 248 248 248 249 251 253 255 254 254 256 256 257 259 260 261 263
239 244 245 246 247 250 253 253 249 248 250 251 252 252 253 253 253 252 251 251 250 249 248 247 247 249 250 251 252 251 249 250 250 248 246 248 250 253 254 254 253 254 255 256 256 258 259 261 263
256 254 251 248 248 252 256 254 249 251 252 253 252 252 252 252 252 252 252 251 249 249 248 247 248 249 251 252 252 250 250 250 251 247 246 248 250 254 254 254 253 254 255 256 257 258 259 261 262
270 262 261 257 257 260 261 256 251 255 257 255 253 253 254 253 252 253 252 251 250 250 248 248 248 249 251 252 250 250 249 250 250 248 248 248 250 253 254 255 255 256 256 257 258 259 260 260 262
276 269 272 272 271 271 268 265 262 258 260 260 260 259 258 258 255 253 253 253 251 251 250 248 247 250 252 252 251 250 249 250 250 249 249 249 250 253 254 254 256 257 257 257 259 260 261 263 264
288 279 277 279 280 276 273 273 268 263 262 264 264 263 262 260 258 255 254 253 252 251 250 249 249 249 250 252 251 250 251 250 250 249 249 249 251 253 255 255 255 255 255 257 259 259 261 263 265
294 288 285 287 289 289 285 282 279 272 270 270 268 267 266 263 261 258 256 255 253 253 251 249 248 248 249 251 251 251 250 250 250 249 248 248 250 254 256 256 255 256 256 257 259 261 262 264 266
317 302 300 300 301 304 305 306 295 287 279 276 274 272 270 267 264 260 257 255 254 251 249 245 246 248 249 249 250 251 250 250 250 249 249 250 252 253 256 255 255 255 257 259 260 261 262 266 268
322 309 302 301 302 305 307 312 310 301 291 285 280 279 279 274 270 266 260 258 257 253 249 247 250 252 252 251 249 250 250 251 252 251 252 251 253 255 255 256 256 257 260 261 261 261 265 267 268
323 313 304 300 300 300 303 307 308 307 303 295 287 285 281 276 271 269 265 261 260 258 254 250 249 251 250 248 248 249 248 248 249 250 249 252 255 255 255 255 258 258 259 259 261 263 267 269 272
Height
5798 5802 5805 5809 5812 5815 5819 5823 5826 5829 5831 5833 5836 5838 5840 5842 5845 5849 5850 5851 5854 5856 5858 5859 5861 5863 5864 5866 5867 5869 5870 5871 5872 5873 5874 5875 5876 5876 5876 5876 5877 5877 5877 5877 5877 5877 5877 5877 5876
5790 5794 5798 5801 5804 5808 5814 5817 5820 5823 5826 5827 5830 5833 5835 5837 5840 5842 5845 5847 5849 5851 5853 5855 5857 5858 5860 5862 5864 5865 5867 5868 5869 5871 5872 5872 5873 5874 5874 5874 5875 5875 5875 5875 5875 5875 5875 5875 5875
5781 5785 5789 5793 5797 5802 5807 5811 5814 5816 5819 5821 5824 5827 5830 5832 5835 5837 5840 5842 5845 5847 5849 5851 5853 5854 5856 5858 5860 5861 5863 5864 5866 5867 5868 5869 5870 5871 5872 5872 5872 5873 5873 5873 5873 5873 5873 5873 5872
5772 5776 5780 5786 5791 5796 5800 5804 5806 5809 5812 5815 5818 5821 5824 5827 5830 5832 5834 5837 5839 5842 5844 5846 5848 5850 5852 5853 5855 5857 5859 5861 5862 5863 5865 5866 5867 5868 5869 5869 5869 5870 5870 5870 5870 5870 5870 5870 5870
5763 5767 5772 5778 5784 5789 5793 5796 5798 5802 5805 5808 5812 5815 5818 5821 5824 5826 5829 5831 5834 5836 5839 5841 5843 5845 5847 5849 5851 5853 5855 5856 5858 5859 5861 5862 5863 5864 5865 5865 5866 5866 5867 5867 5867 5867 5867 5867 5867
5754 5759 5765 5771 5777 5781 5785 5788 5791 5795 5798 5801 5805 5809 5812 5815 5817 5820 5823 5826 5828 5830 5833 5835 5838 5840 5842 5844 5846 5848 5850 5851 5853 5855 5856 5858 5859 5860 5861 5862 5862 5863 5863 5864 5864 5864 5864 5864 5864
5746 5751 5757 5763 5769 5774 5778 5780 5784 5787 5791 5795 5798 5802 5805 5809 5811 5814 5817 5819 5822 5824 5827 5829 5831 5834 5836 5838 5840 5842 5844 5846 5848 5850 5851 5853 5854 5855 5856 5857 5858 5858 5859 5859 5860 5860 5860 5860 5860
5737 5744 5748 5755 5761 5766 5769 5772 5776 5780 5783 5787 5791 5796 5799 5802 5804 5806 5809 5812 5815 5817 5820 5822 5825 5827 5830 5832 5834 5836 5838 5840 5842 5844 5846 5847 5849 5850 5851 5852 5853 5854 5854 5855 5855 5855 5855 5856 5856
5729 5736 5741 5748 5753 5758 5761 5765 5768 5772 5776 5780 5784 5788 5792 5794 5797 5799 5802 5805 5808 5810 5813 5815 5818 5820 5823 5825 5828 5830 5832 5834 5836 5838 5840 5842 5843 5844 5846 5847 5848 5849 5849 5850 5850 5850 5851 5851 5851
5722 5728 5735 5740 5745 5750 5754 5757 5761 5765 5769 5773 5776 5780 5784 5787 5789 5792 5794 5797 5800 5802 5805 5808 5810 5813 5816 5818 5821 5823 5825 5827 5829 5832 5834 5835 5837 5838 5840 5841 5842 5843 5844 5844 5845 5845 5845 5845 5845
5716 5722 5728 5732 5737 5742 5746 5750 5753 5758 5762 5765 5769 5773 5776 5779 5781 5784 5786 5789 5792 5794 5797 5800 5802 5805 5808 5810 5813 5815 5818 5820 5822 5825 5827 5828 5830 5832 5834 5835 5836 5837 5838 5839 5839 5840 5840 5840 5840
5711 5716 5721 5726 5730 5735 5739 5743 5747 5751 5755 5758 5761 5765 5768 5771 5773 5775 5778 5781 5783 5786 5789 5791 5794 5797 5799 5802 5804 5807 5810 5812 5815 5817 5819 5822 5824 5825 5827 5829 5830 5831 5831 5832 5833 5834 5834 5834 5834
5705 5710 5715 5719 5724 5728 5733 5737 5740 5744 5747 5750 5753 5757 5760 5762 5764 5767 5769 5772 5775 5778 5780 5783 5786 5788 5791 5793 5795 5798 5801 5804 5807 5809 5812 5814 5817 5819 5820 5822 5823 5824 5825 5826 5827 5827 5827 5828 5828
5701 5705 5710 5714 5718 5723 5727 5730 5734 5738 5740 5743 5746 5749 5751 5754 5756 5758 5761 5763 5766 5769 5772 5774 5777 5779 5782 5784 5787 5789 5792 5795 5798 5801 5803 5806 5809 5811 5813 5814 5816 5817 5818 5819 5820 5820 5821 5821 5821
5698 5702 5706 5710 5713 5717 5721 5725 5728 5731 5733 5736 5739 5741 5743 5746 5748 5750 5752 5755 5757 5760 5763 5766 5768 5771 5773 5775 5778 5780 5783 5786 5789 5792 5794 5797 5800 5802 5804 5806 5808 5809 5810 5811 5812 5813 5814 5814 5814
5695 5699 5702 5705 5709 5712 5716 5719 5721 5723 5726 5728 5731 5733 5735 5737 5739 5741 5743 5746 5748 5751 5754 5757 5759 5762 5764 5766 5768 5771 5774 5777 5780 5782 5785 5788 5791 5793 5795 5797 5799 5801 5802 5803 5804 5805 5806 5806 5806
5693 5696 5698 5701 5704 5706 5710 5713 5715 5717 5719 5721 5723 5725 5727 5729 5731 5732 5734 5736 5739 5742 5744 5747 5750 5753 5755 5757 5759 5762 5764 5767 5770 5773 5776 5778 5781 5783 5786 5788 5790 5791 5793 5794 5795 5796 5797 5798 5798
5691 5693 5695 5697 5699 5702 5704 5707 5709 5710 5712 5714 5715 5717 5719 5721 5722 5724 5725 5727 5730 5732 5735 5738 5741 5743 5745 5748 5750 5752 5755 5758 5760 5763 5766 5768 5771 5773 5775 5778 5780 5781 5784 5785 5786 5787 5788 5789 5790
5688 5690 5692 5694 5695 5697 5699 5701 5703 5704 5705 5707 5708 5710 5711 5713 5714 5715 5717 5719 5721 5723 5726 5728 5731 5733 5736 5738 5740 5743 5745 5748 5750 5753 5756 5758 5761 5762 5765 5768 5770 5772 5774 5776 5777 5778 5779 5780 5781
5686 5688 5689 5691 5692 5693 5694 5696 5697 5697 5698 5699 5701 5702 5704 5705 5706 5708 5709 5711 5712 5714 5716 5718 5721 5723 5725 5728 5730 5732 5735 5737 5740 5743 5746 5748 5750 5752 5755 5757 5760 5762 5764 5765 5767 5769 5770 5771 5771
5685 5686 5687 5688 5688 5689 5690 5691 5692 5692 5692 5693 5694 5695 5696 5698 5699 5700 5701 5702 5704 5705 5707 5709 5711 5713 5716 5718 5720 5722 5724 5727 5730 5733 5736 5738 5741 5743 5745 5747 5749 5751 5754 5756 5757 5759 5760 5761 5762
5683 5684 5684 5685 5686 5686 5686 5686 5687 5687 5687 5687 5687 5688 5689 5690 5691 5692 5693 5694 5696 5697 5699 5700 5703 5705 5707 5709 5710 5712 5714 5717 5720 5722 5725 5728 5731 5733 5735 5737 5739 5742 5744 5745 5747 5749 5750 5751 5752
5682 5682 5682 5683 5683 5683 5683 5682 5684 5682 5682 5682 5682 5682 5682 5683 5684 5685 5686 5687 5688 5690 5691 5693 5694 5696 5698 5700 5701 5703 5705 5707 5709 5712 5715 5718 5721 5723 5725 5727 5730 5732 5734 5736 5737 5739 5740 5741 5742
5680 5680 5680 5680 5680 5681 5680 5679 5680 5678 5678 5677 5677 5677 5677 5677 5677 5678 5679 5680 5681 5682 5684 5685 5687 5688 5690 5691 5692 5694 5696 5698 5700 5703 5705 5709 5712 5714 5716 5718 5720 5722 5724 5726 5728 5729 5730 5731 5732
5679 5679 5679 5678 5678 5678 5676 5675 5677 5675 5674 5673 5673 5672 5672 5671 5671 5672 5672 5673 5674 5675 5676 5677 5679 5681 5682 5683 5684 5686 5688 5690 5692 5694 5697 5700 5703 5705 5707 5709 5711 5713 5715 5717 5718 5719 5720 5721 5722
5678 5678 5678 5677 5676 5675 5674 5673 5674 5671 5670 5669 5669 5668 5667 5666 5666 5665 5665 5666 5666 5667 5668 5670 5671 5673 5674 5676 5677 5679 5681 5682 5685 5687 5689 5692 5695 5697 5699 5700 5702 5704 5706 5707 5708 5710 5711 5711 5711
5677 5676 5676 5675 5674 5673 5672 5671 5670 5668 5667 5665 5665 5664 5663 5662 5661 5660 5659 5659 5660 5660 5661 5662 5664 5666 5667 5669 5670 5672 5673 5675 5677 5679 5682 5684 5686 5688 5690 5692 5694 5695 5697 5698 5699 5700 5701 5702 5702
5677 5676 5675 5673 5672 5671 5670 5668 5668 5666 5664 5663 5661 5659 5658 5657 5656 5655 5654 5654 5653 5654 5654 5655 5657 5659 5660 5662 5663 5665 5667 5669 5670 5672 5675 5677 5679 5681 5682 5684 5685 5687 5689 5690 5691 5692 5692 5693 5693
5676 5675 5673 5671 5670 5668 5667 5669 5665 5663 5661 5660 5658 5656 5654 5652 5651 5650 5649 5648 5648 5648 5648 5650 5651 5653 5654 5656 5657 5659 5661 5663 5664 5666 5668 5670 5672 5674 5675 5677 5678 5679 5680 5681 5682 5683 5683 5683 5683
5675 5673 5672 5671 5669 5666 5664 5667 5662 5660 5658 5656 5654 5652 5650 5648 5647 5645 5644 5644 5643 5643 5644 5645 5646 5648 5649 5650 5652 5653 5655 5657 5659 5660 5662 5664 5665 5667 5669 5670 5671 5672 5673 5674 5674 5675 5674 5674 5674